Change the Weather History Date:

Monday, March 4, 2013

  Actual Average (KRIC) Record (KRIC)
Temperature  
Mean Temperature 36 °F 45 °F  
Max Temperature 47 °F 56 °F 82 °F (2004)
Min Temperature 25 °F 34 °F 10 °F (2009)
Degree Days  
Heating Degree Days 29 20  
Month to date heating degree days 83  
Since 1 July heating degree days 3019  
Cooling Degree Days 0 0  
Month to date cooling degree days 0  
Year to date cooling degree days 0  
Moisture  
Dew Point 21 °F    
Average Humidity 59    
Maximum Humidity 88    
Minimum Humidity 33    
Precipitation  
Precipitation 0.00 in 0.11 in 1.84 in (1993)
Month to date precipitation 0.45  
Year to date precipitation 6.25  
Snow  
Snow 0.00 in 0.10 in 0.80 in (1909)
Month to date snowfall 0.2  
Since 1 July snowfall 9.8  
Snow Depth -    
Sea Level Pressure  
Sea Level Pressure 30.01 in    
Wind  
Wind Speed 5 mph (WNW)    
Max Wind Speed 17 mph    
Max Gust Speed 23 mph    
Visibility 10 miles    
Events      
T = Trace of Precipitation, MM = Missing Value Source: NWS Daily Summary

Daily Weather History Graph

Daily Weather History Graph

Search for Another Location

Airport or City:

Trip Planner

Search our weather history database for the weather conditions in past years. The results will help you decide how hot, cold, wet, or windy it might be!

Date:

Astronomy

Mar. 04, 2013 Rise Set
Actual Time 6:33 AM EST 6:04 PM EST
Civil Twilight 6:07 AM EST 6:30 PM EST
Nautical Twilight 5:37 AM EST 7:00 PM EST
Astronomical Twilight 5:07 AM EST 7:30 PM EST
Moon 12:36 AM EST (3/4) 10:48 AM EST (3/4)
Length of Visible Light 12h 22m
Length of Day
11h 30m
Waning Gibbous, 52% of the Moon is Illuminated
Mar 4
Waning Gibbous
Mar 4
Last Quarter
Mar 11
New
Mar 19
First Quarter
Mar 27
Full

Hourly Weather History & Observations

Time (EST) Temp. Windchill Dew Point Humidity Pressure Visibility Wind Dir Wind Speed Gust Speed Precip Events Conditions
12:15 AM 30.4 °F - 21.4 °F 69% 29.95 in 10.0 mi Calm Calm - N/A   Clear
12:35 AM 29.1 °F - 21.4 °F 73% 29.95 in 10.0 mi Calm Calm - N/A   Clear
12:55 AM 28.2 °F - 21.9 °F 77% 29.96 in 10.0 mi Calm Calm - N/A   Clear
1:15 AM 28.2 °F - 22.5 °F 79% 29.95 in 10.0 mi Calm Calm - N/A   Clear
1:35 AM 27.1 °F - 21.9 °F 81% 29.96 in 10.0 mi Calm Calm - N/A   Clear
1:55 AM 28.8 °F - 21.7 °F 75% 29.96 in 10.0 mi Calm Calm - N/A   Clear
2:15 AM 29.3 °F - 21.2 °F 72% 29.96 in 10.0 mi Calm Calm - N/A   Clear
2:55 AM 29.3 °F 25.6 °F 20.5 °F 70% 29.96 in 10.0 mi NW 3.5 mph - N/A   Clear
3:15 AM 29.3 °F - 20.3 °F 69% 29.96 in 10.0 mi Calm Calm - N/A   Clear
3:35 AM 29.3 °F 25.6 °F 20.1 °F 69% 29.96 in 10.0 mi NW 3.5 mph - N/A   Clear
3:55 AM 29.3 °F 24.3 °F 19.9 °F 68% 29.97 in 10.0 mi NW 4.6 mph - N/A   Clear
4:15 AM 29.3 °F 24.3 °F 19.9 °F 68% 29.97 in 10.0 mi NW 4.6 mph - N/A   Clear
4:35 AM 29.3 °F 24.3 °F 19.4 °F 67% 29.98 in 10.0 mi WNW 4.6 mph - N/A   Clear
4:55 AM 28.9 °F 21.9 °F 19.4 °F 68% 29.99 in 10.0 mi WNW 6.9 mph - N/A   Clear
5:15 AM 29.3 °F 23.2 °F 20.5 °F 70% 29.99 in 10.0 mi WNW 5.8 mph - N/A   Clear
5:35 AM 29.1 °F 21.3 °F 20.3 °F 70% 30.00 in 10.0 mi WNW 8.1 mph - N/A   Clear
5:55 AM 29.1 °F 21.3 °F 20.3 °F 70% 30.01 in 10.0 mi WNW 8.1 mph - N/A   Clear
6:15 AM 28.8 °F 22.6 °F 19.6 °F 69% 30.01 in 10.0 mi WNW 5.8 mph - N/A   Clear
6:35 AM 28.4 °F 22.2 °F 19.4 °F 69% 30.02 in 10.0 mi WNW 5.8 mph - N/A   Clear
6:55 AM 29.1 °F 22.1 °F 19.6 °F 68% 30.03 in 10.0 mi WNW 6.9 mph - N/A   Clear
7:15 AM 29.1 °F 24.1 °F 19.8 °F 68% 30.04 in 10.0 mi WNW 4.6 mph - N/A   Clear
7:35 AM 30.0 °F 23.2 °F 19.4 °F 65% 30.04 in 10.0 mi WNW 6.9 mph - N/A   Clear
7:55 AM 30.9 °F 24.3 °F 19.4 °F 62% 30.05 in 10.0 mi WNW 6.9 mph - N/A   Clear
8:15 AM 32.0 °F 25.6 °F 19.6 °F 60% 30.06 in 10.0 mi WNW 6.9 mph - N/A   Clear
8:55 AM 33.4 °F 26.6 °F 18.3 °F 54% 30.06 in 10.0 mi NW 8.1 mph - N/A   Clear
9:15 AM 34.5 °F 26.2 °F 17.6 °F 50% 30.06 in 10.0 mi NW 11.5 mph 21.9 mph N/A   Clear
9:35 AM 34.7 °F 26.9 °F 17.2 °F 49% 30.06 in 10.0 mi NW 10.4 mph 19.6 mph N/A   Clear
9:55 AM 35.8 °F 26.5 °F 17.6 °F 48% 30.05 in 10.0 mi WNW 15.0 mph 19.6 mph N/A   Clear
10:15 AM 37.4 °F 29.8 °F 17.8 °F 45% 30.04 in 10.0 mi WNW 11.5 mph 20.7 mph N/A   Clear
10:35 AM 37.8 °F 29.4 °F 17.1 °F 43% 30.05 in 10.0 mi WNW 13.8 mph 19.6 mph N/A   Clear
10:55 AM 38.1 °F 30.7 °F 16.5 °F 42% 30.05 in 10.0 mi NW 11.5 mph 21.9 mph N/A   Clear
11:15 AM 39.0 °F 30.6 °F 17.1 °F 41% 30.04 in 10.0 mi West 15.0 mph 21.9 mph N/A   Clear
11:35 AM 39.6 °F 32.1 °F 18.7 °F 43% 30.04 in 10.0 mi West 12.7 mph 20.7 mph N/A   Clear
11:55 AM 40.5 °F 32.8 °F 18.5 °F 41% 30.03 in 10.0 mi West 13.8 mph 20.7 mph N/A   Clear
12:15 PM 40.5 °F 33.6 °F 18.0 °F 40% 30.03 in 10.0 mi West 11.5 mph 23.0 mph N/A   Clear
12:35 PM 41.9 °F 34.0 °F 19.2 °F 40% 30.02 in 10.0 mi West 16.1 mph 21.9 mph N/A   Clear
12:55 PM 42.4 °F 36.1 °F 18.7 °F 39% 30.01 in 10.0 mi West 11.5 mph 23.0 mph N/A   Clear
1:15 PM 43.2 °F 35.3 °F 19.6 °F 39% 29.99 in 10.0 mi West 17.3 mph 20.7 mph N/A   Clear
1:55 PM 44.6 °F 37.8 °F 19.2 °F 36% 29.98 in 10.0 mi West 15.0 mph 20.7 mph N/A   Clear
2:15 PM 46.2 °F 39.8 °F 19.8 °F 35% 29.98 in 10.0 mi West 15.0 mph 18.4 mph N/A   Clear
2:35 PM 46.2 °F 39.8 °F 19.9 °F 35% 29.98 in 10.0 mi West 15.0 mph 18.4 mph N/A   Clear
2:55 PM 46.9 °F - 20.3 °F 35% 29.97 in 10.0 mi West 13.8 mph 19.6 mph N/A   Clear
3:15 PM 46.8 °F - 19.4 °F 34% 29.97 in 10.0 mi West 15.0 mph 20.7 mph N/A   Clear
3:35 PM 47.7 °F - 19.4 °F 33% 29.97 in 10.0 mi West 9.2 mph 17.3 mph N/A   Clear
3:55 PM 47.5 °F - 19.6 °F 33% 29.96 in 10.0 mi West 10.4 mph 20.7 mph N/A   Clear
4:15 PM 47.5 °F - 19.6 °F 33% 29.96 in 10.0 mi West 12.7 mph 17.3 mph N/A   Clear
4:35 PM 47.3 °F - 19.6 °F 33% 29.97 in 10.0 mi WNW 9.2 mph 16.1 mph N/A   Clear
4:55 PM 47.1 °F - 19.9 °F 34% 29.97 in 10.0 mi West 11.5 mph - N/A   Clear
5:15 PM 46.8 °F - 20.5 °F 35% 29.97 in 10.0 mi West 9.2 mph - N/A   Clear
5:35 PM 46.0 °F 42.5 °F 20.1 °F 36% 29.98 in 10.0 mi WNW 6.9 mph - N/A   Clear
5:55 PM 45.0 °F 40.6 °F 19.9 °F 37% 29.98 in 10.0 mi West 8.1 mph - N/A   Clear
6:15 PM 43.9 °F 41.3 °F 21.0 °F 40% 29.99 in 10.0 mi WNW 4.6 mph - N/A   Clear
6:35 PM 42.8 °F 41.1 °F 21.9 °F 44% 30.00 in 10.0 mi WNW 3.5 mph - N/A   Clear
6:55 PM 37.9 °F - 24.6 °F 59% 30.01 in 10.0 mi Calm Calm - N/A   Clear
7:15 PM 36.0 °F - 24.6 °F 63% 30.02 in 10.0 mi Calm Calm - N/A   Clear
7:35 PM 33.4 °F - 23.9 °F 68% 30.02 in 10.0 mi Calm Calm - N/A   Clear
7:55 PM 33.3 °F - 25.2 °F 72% 30.03 in 10.0 mi Calm Calm - N/A   Clear
8:15 PM 31.3 °F - 24.1 °F 75% 30.03 in 10.0 mi Calm Calm - N/A   Clear
8:35 PM 30.9 °F - 25.2 °F 79% 30.03 in 10.0 mi Calm Calm - N/A   Clear
8:55 PM 28.8 °F - 22.6 °F 78% 30.04 in 10.0 mi Calm Calm - N/A   Clear
9:35 PM 28.2 °F - 22.6 °F 80% 30.06 in 10.0 mi Calm Calm - N/A   Clear
9:55 PM 28.4 °F - 23.2 °F 81% 30.06 in 10.0 mi Calm Calm - N/A   Clear
10:15 PM 27.7 °F - 23.5 °F 84% 30.06 in 10.0 mi Calm Calm - N/A   Clear
10:35 PM 27.9 °F - 23.0 °F 82% 30.06 in 10.0 mi Calm Calm - N/A   Clear
10:55 PM 29.1 °F - 24.3 °F 82% 30.07 in 10.0 mi Calm Calm - N/A   Clear
11:15 PM 27.3 °F - 24.3 °F 88% 30.07 in 10.0 mi Calm Calm - N/A   Clear
11:35 PM 25.9 °F - 22.1 °F 86% 30.07 in 10.0 mi Calm Calm - N/A   Clear
11:55 PM 27.7 °F - 23.0 °F 83% 30.08 in 10.0 mi Calm Calm - N/A   Clear